Weather History for KEWB - April, 2012

Change the Weather History Date:

Wednesday, April 25, 2012

  Actual Average (WUND) Record (WUND)
Temperature  
Mean Temperature 49 °F -  
Max Temperature 62 °F - - (-1)
Min Temperature 37 °F - - (-1)
Degree Days  
Heating Degree Days 16    
Moisture  
Dew Point 36 °F    
Average Humidity 65    
Maximum Humidity 100    
Minimum Humidity 27    
Precipitation  
Precipitation 0.00 in - - ()
Sea Level Pressure  
Sea Level Pressure 29.78 in    
Wind  
Wind Speed 5 mph (SW)    
Max Wind Speed 16 mph    
Max Gust Speed 31 mph    
Visibility 9 miles    
Events      
Averages and records for this station are not official NWS values.
T = Trace of Precipitation, MM = Missing Value Source: NWS Daily Summary

Daily Weather History Graph

Daily Weather History Graph

Search for Another Location

Airport or City:

Trip Planner

Search our weather history database for the weather conditions in past years. The results will help you decide how hot, cold, wet, or windy it might be!

Date:

Astronomy

Apr. 25, 2012 Rise Set
Actual Time 5:48 AM EDT 7:36 PM EDT
Civil Twilight 5:18 AM EDT 8:05 PM EDT
Nautical Twilight 4:42 AM EDT 8:42 PM EDT
Astronomical Twilight 4:03 AM EDT 9:21 PM EDT
Moon 8:28 AM EDT (4/25) 11:41 PM EDT (4/25)
Length of Visible Light 14h 47m
Length of Day
13h 47m
Waxing Crescent, 16% of the Moon is Illuminated
Apr 25
Waxing Crescent
Apr 29
First Quarter
May 5
Full
May 12
Last Quarter
May 20
New

Hourly Weather History & Observations

Time (EDT) Temp. Windchill Dew Point Humidity Pressure Visibility Wind Dir Wind Speed Gust Speed Precip Events Conditions
12:53 AM 48.9 °F - 41.0 °F 74% 29.72 in 10.0 mi South 8.1 mph - N/A   Clear
1:53 AM 48.0 °F - 39.9 °F 74% 29.72 in 10.0 mi South 6.9 mph - N/A   Clear
2:53 AM 46.9 °F - 39.9 °F 77% 29.72 in 10.0 mi SSW 3.5 mph - N/A   Clear
3:53 AM 45.0 °F - 39.9 °F 82% 29.72 in 10.0 mi Calm Calm - N/A   Clear
4:53 AM 42.8 °F - 39.2 °F 87% 29.74 in 10.0 mi Calm Calm - N/A   Clear
5:36 AM 39.2 °F - 37.4 °F 93% 29.75 in 2.5 mi Calm Calm - N/A   Clear
5:44 AM 39.2 °F - 37.4 °F 93% 29.75 in 6.0 mi Calm Calm - N/A   Clear
5:53 AM 39.9 °F - 39.0 °F 97% 29.75 in 3.0 mi Calm Calm - N/A   Clear
6:11 AM 37.4 °F - 37.4 °F 100% 29.76 in 1.5 mi Calm Calm - N/A   Clear
6:29 AM 39.2 °F - 37.4 °F 93% 29.77 in 3.0 mi Calm Calm - N/A   Mostly Cloudy
6:53 AM 41.0 °F - 39.0 °F 93% 29.78 in 8.0 mi Calm Calm - N/A   Scattered Clouds
7:53 AM 50.0 °F - 43.0 °F 77% 29.80 in 10.0 mi SSW 5.8 mph - N/A   Clear
8:53 AM 54.0 °F - 34.0 °F 47% 29.81 in 10.0 mi WNW 9.2 mph - N/A   Clear
9:53 AM 55.0 °F - 30.9 °F 40% 29.81 in 10.0 mi West 8.1 mph - N/A   Clear
10:53 AM 57.0 °F - 28.0 °F 33% 29.81 in 10.0 mi Variable 3.5 mph - N/A   Clear
11:53 AM 59.0 °F - 27.0 °F 29% 29.79 in 10.0 mi WSW 6.9 mph 18.4 mph N/A   Clear
12:53 PM 61.0 °F - 27.0 °F 27% 29.77 in 10.0 mi West 12.7 mph 21.9 mph N/A   Clear
1:53 PM 61.0 °F - 30.9 °F 32% 29.77 in 10.0 mi SSW 13.8 mph 21.9 mph N/A   Scattered Clouds
2:53 PM 60.8 °F - 33.8 °F 36% 29.75 in 10.0 mi SW 11.5 mph 21.9 mph N/A   Clear
3:53 PM 60.1 °F - 33.1 °F 36% 29.76 in 10.0 mi SSW 16.1 mph 31.1 mph N/A   Scattered Clouds
4:53 PM 57.9 °F - 33.1 °F 39% 29.76 in 10.0 mi SW 12.7 mph 24.2 mph N/A   Clear
5:53 PM 55.9 °F - 33.1 °F 42% 29.78 in 10.0 mi SSW 16.1 mph 21.9 mph N/A   Clear
6:53 PM 53.1 °F - 34.0 °F 48% 29.80 in 10.0 mi SW 10.4 mph - N/A   Scattered Clouds
7:53 PM 51.1 °F - 37.9 °F 61% 29.82 in 10.0 mi SW 4.6 mph - N/A   Mostly Cloudy
8:53 PM 51.1 °F - 39.9 °F 66% 29.85 in 10.0 mi West 8.1 mph - N/A   Overcast
9:53 PM 48.0 °F - 39.0 °F 71% 29.87 in 10.0 mi NNW 3.5 mph - 0.00 in   Overcast
10:53 PM 45.0 °F 43.5 °F 39.9 °F 82% 29.88 in 10.0 mi WSW 3.5 mph - N/A   Mostly Cloudy
11:53 PM 42.1 °F - 37.9 °F 85% 29.88 in 10.0 mi Calm Calm - N/A   Clear